Weather History for St. Cloud, MN

Change the Weather History Date:

Sunday, March 3, 2013

  Actual Average Record
Temperature  
Mean Temperature 26 °F 24 °F  
Max Temperature 32 °F 33 °F 61 °F (1905)
Min Temperature 19 °F 14 °F -19 °F (2014)
Degree Days  
Heating Degree Days 39 42  
Month to date heating degree days 142 126  
Since 1 July heating degree days 6412 6572  
Cooling Degree Days 0 0  
Month to date cooling degree days 0 0  
Year to date cooling degree days 0 0  
Moisture  
Dew Point 9 °F    
Average Humidity 55    
Maximum Humidity 71    
Minimum Humidity 38    
Precipitation  
Precipitation 0.00 in 0.04 in 0.86 in (1966)
Month to date precipitation T 0.11  
Year to date precipitation 1.78 1.35  
Snow  
Snow 0.00 in 0.30 in 8.70 in (1985)
Month to date snowfall T 1.0  
Since 1 July snowfall 37.5 35.2  
Snow Depth 10.00 in    
Sea Level Pressure  
Sea Level Pressure 30.09 in    
Wind  
Wind Speed 9 mph (ESE)    
Max Wind Speed 17 mph    
Max Gust Speed 23 mph    
Visibility 10 miles    
Events      
T = Trace of Precipitation, MM = Missing Value Source: NWS Daily Summary

Daily Weather History Graph

Daily Weather History Graph

Search for Another Location

Airport:

Trip Planner

Search our weather history database for the weather conditions in past years. The results will help you decide how hot, cold, wet, or windy it might be!

Date:

Astronomy

Mar. 03, 2013 Rise Set
Actual Time 6:50 AM CST 6:06 PM CST
Civil Twilight 6:20 AM CST 6:36 PM CST
Nautical Twilight 5:46 AM CST 7:10 PM CST
Astronomical Twilight 5:12 AM CST 7:44 PM CST
Moon 12:04 AM CST (3/3) 9:46 AM CST (3/3)
Length of Visible Light 12h 15m
Length of Day
11h 15m
Waning Gibbous, 63% of the Moon is Illuminated
Mar 3
Waning Gibbous
Mar 4
Last Quarter
Mar 11
New
Mar 19
First Quarter
Mar 27
Full

Hourly Weather History & Observations

Time (CST) Temp. Windchill Dew Point Humidity Pressure Visibility Wind Dir Wind Speed Gust Speed Precip Events Conditions
12:53 AM 21.0 °F 14.6 °F 10.9 °F 65% 30.19 in 10.0 mi ESE 4.6 mph - N/A   Overcast
1:53 AM 21.9 °F 17.2 °F 10.9 °F 63% 30.18 in 10.0 mi ESE 3.5 mph - N/A   Overcast
2:53 AM 21.0 °F 14.6 °F 10.0 °F 63% 30.17 in 10.0 mi SE 4.6 mph - N/A   Overcast
3:53 AM 19.9 °F 12.1 °F 10.9 °F 68% 30.15 in 10.0 mi SE 5.8 mph - N/A   Overcast
4:53 AM 21.0 °F 13.4 °F 10.0 °F 63% 30.14 in 10.0 mi ESE 5.8 mph - N/A   Overcast
5:53 AM 19.4 °F 11.5 °F 8.6 °F 63% 30.07 in 10.0 mi East 5.8 mph - N/A   Mostly Cloudy
6:53 AM 19.9 °F 13.4 °F 8.1 °F 60% 30.15 in 10.0 mi East 4.6 mph - N/A   Overcast
7:53 AM 19.9 °F 12.1 °F 8.1 °F 60% 30.15 in 10.0 mi ESE 5.8 mph - N/A   Overcast
8:53 AM 21.9 °F 11.7 °F 9.0 °F 58% 30.14 in 10.0 mi SE 9.2 mph - N/A   Mostly Cloudy
9:53 AM 24.1 °F 15.2 °F 10.0 °F 55% 30.13 in 10.0 mi SE 8.1 mph - N/A   Overcast
10:53 AM 26.1 °F 15.6 °F 12.0 °F 55% 30.12 in 10.0 mi SE 11.5 mph - N/A   Overcast
11:53 AM 28.0 °F 16.5 °F 10.9 °F 49% 30.10 in 10.0 mi SSE 15.0 mph - N/A   Mostly Cloudy
12:53 PM 28.9 °F 17.7 °F 12.0 °F 49% 30.08 in 10.0 mi SSE 15.0 mph - N/A   Mostly Cloudy
1:53 PM 30.9 °F 20.2 °F 12.0 °F 46% 30.05 in 10.0 mi SSE 15.0 mph - N/A   Mostly Cloudy
2:53 PM 30.0 °F 19.5 °F 12.0 °F 47% 30.04 in 10.0 mi SE 13.8 mph - N/A   Clear
3:53 PM 30.9 °F 20.7 °F 9.0 °F 40% 30.03 in 10.0 mi SE 13.8 mph - N/A   Clear
4:53 PM 30.9 °F 24.3 °F 9.0 °F 40% 30.03 in 10.0 mi SE 6.9 mph - N/A   Clear
5:53 PM 30.0 °F 24.1 °F 9.0 °F 41% 30.03 in 10.0 mi East 5.8 mph - N/A   Overcast
6:53 PM 28.0 °F 20.0 °F 8.1 °F 43% 30.04 in 10.0 mi East 8.1 mph - N/A   Overcast
7:53 PM 27.0 °F 19.5 °F 6.1 °F 41% 30.05 in 10.0 mi ESE 6.9 mph - N/A   Overcast
8:53 PM 26.1 °F 16.8 °F 5.0 °F 41% 30.04 in 10.0 mi ESE 9.2 mph - N/A   Overcast
9:53 PM 26.1 °F 16.8 °F 5.0 °F 41% 30.02 in 10.0 mi East 9.2 mph - N/A   Scattered Clouds
10:53 PM 26.1 °F 17.6 °F 6.1 °F 43% 30.02 in 10.0 mi East 8.1 mph - N/A   Overcast
11:53 PM 26.1 °F 17.6 °F 6.1 °F 43% 30.03 in 10.0 mi ESE 8.1 mph - N/A   Overcast